Weather History for KPSK - December, 2011

Change the Weather History Date:

Thursday, December 1, 2011

  Actual Average (KBCB) Record (KBCB)
Temperature  
Mean Temperature 38 °F 38 °F  
Max Temperature 51 °F 48 °F 72 °F (2006)
Min Temperature 24 °F 27 °F 6 °F (1976)
Degree Days  
Heating Degree Days 28 27  
Month to date heating degree days 27  
Since 1 July heating degree days 1207  
Cooling Degree Days 0 0  
Month to date cooling degree days 0  
Year to date cooling degree days 573  
Moisture  
Dew Point 24 °F    
Average Humidity 64    
Maximum Humidity 93    
Minimum Humidity 28    
Precipitation  
Precipitation 0.00 in 0.10 in 2.37 in (1996)
Month to date precipitation 0.10  
Year to date precipitation 38.04  
Snow  
Snow 0.00 in - - ()
Month to date snowfall  
Since 1 July snowfall  
Snow Depth -    
Sea Level Pressure  
Sea Level Pressure 30.28 in    
Wind  
Wind Speed 2 mph (WSW)    
Max Wind Speed 5 mph    
Max Gust Speed -    
Visibility 10 miles    
Events      
T = Trace of Precipitation, MM = Missing Value Source: NWS Daily Summary

Daily Weather History Graph

Daily Weather History Graph

Search for Another Location

Airport or City:

Trip Planner

Search our weather history database for the weather conditions in past years. The results will help you decide how hot, cold, wet, or windy it might be!

Date:

Astronomy

Dec. 01, 2011 Rise Set
Actual Time 7:17 AM EST 5:05 PM EST
Civil Twilight 6:48 AM EST 5:34 PM EST
Nautical Twilight 6:16 AM EST 6:06 PM EST
Astronomical Twilight 5:45 AM EST 6:37 PM EST
Moon 12:07 PM EST (12/1) 11:56 PM EST (12/1)
Length of Visible Light 10h 45m
Length of Day
9h 48m
Waxing Crescent, 43% of the Moon is Illuminated
Dec 1
Waxing Crescent
Dec 2
First Quarter
Dec 10
Full
Dec 17
Last Quarter
Dec 24
New

Hourly Weather History & Observations

Time (EST) Temp. Windchill Dew Point Humidity Pressure Visibility Wind Dir Wind Speed Gust Speed Precip Events Conditions
12:15 AM 30.2 °F 26.7 °F 26.6 °F 86% 30.19 in 10.0 mi West 3.5 mph - N/A   Clear
12:35 AM 30.2 °F 25.4 °F 26.6 °F 86% 30.19 in 10.0 mi WNW 4.6 mph - N/A   Clear
12:55 AM 30.2 °F - 26.6 °F 86% 30.20 in 10.0 mi Calm Calm - N/A   Clear
1:15 AM 30.2 °F 25.4 °F 24.8 °F 80% 30.20 in 10.0 mi WNW 4.6 mph - N/A   Clear
1:35 AM 28.4 °F - 24.8 °F 86% 30.20 in 10.0 mi Calm Calm - N/A   Clear
2:15 AM 28.4 °F 23.3 °F 24.8 °F 86% 30.20 in 10.0 mi WSW 4.6 mph - N/A   Clear
2:35 AM 28.4 °F 23.3 °F 24.8 °F 86% 30.20 in 10.0 mi WSW 4.6 mph - N/A   Clear
2:55 AM 30.2 °F 25.4 °F 26.6 °F 86% 30.20 in 10.0 mi West 4.6 mph - N/A   Clear
3:15 AM 28.4 °F 24.6 °F 24.8 °F 86% 30.21 in 10.0 mi SW 3.5 mph - N/A   Clear
3:35 AM 28.4 °F 24.6 °F 24.8 °F 86% 30.21 in 10.0 mi SSW 3.5 mph - N/A   Clear
3:55 AM 28.4 °F 24.6 °F 24.8 °F 86% 30.21 in 10.0 mi WSW 3.5 mph - N/A   Clear
4:15 AM 26.6 °F 21.2 °F 24.8 °F 93% 30.22 in 10.0 mi WSW 4.6 mph - N/A   Clear
4:35 AM 26.6 °F - 24.8 °F 93% 30.22 in 10.0 mi Calm Calm - N/A   Clear
4:55 AM 28.4 °F - 24.8 °F 86% 30.23 in 10.0 mi Calm Calm - N/A   Clear
5:35 AM 26.6 °F - 23.0 °F 86% 30.24 in 10.0 mi Calm Calm - N/A   Clear
5:55 AM 26.6 °F - 23.0 °F 86% 30.25 in 10.0 mi Calm Calm - N/A   Clear
6:15 AM 26.6 °F - 23.0 °F 86% 30.27 in 10.0 mi Calm Calm - N/A   Clear
6:35 AM 26.6 °F - 24.8 °F 93% 30.27 in 10.0 mi Calm Calm - N/A   Clear
6:55 AM 26.6 °F - 23.0 °F 86% 30.28 in 10.0 mi Calm Calm - N/A   Clear
7:15 AM 24.8 °F 20.5 °F 21.2 °F 86% 30.28 in 10.0 mi SW 3.5 mph - N/A   Clear
7:35 AM 24.8 °F - 23.0 °F 93% 30.29 in 10.0 mi Calm Calm - N/A   Clear
8:15 AM 28.4 °F - 26.6 °F 93% 30.32 in 10.0 mi Calm Calm - N/A   Clear
8:35 AM 30.2 °F - 28.4 °F 93% 30.33 in 10.0 mi Calm Calm - N/A   Clear
9:15 AM 33.8 °F - 26.6 °F 75% 30.35 in 10.0 mi Calm Calm - N/A   Clear
9:35 AM 35.6 °F - 26.6 °F 70% 30.35 in 10.0 mi Calm Calm - N/A   Clear
9:55 AM 35.6 °F - 26.6 °F 70% 30.36 in 10.0 mi Calm Calm - N/A   Clear
10:15 AM 37.4 °F - 26.6 °F 65% 30.36 in 10.0 mi Calm Calm - N/A   Clear
10:35 AM 39.2 °F - 26.6 °F 61% 30.36 in 10.0 mi Calm Calm - N/A   Clear
10:55 AM 39.2 °F - 26.6 °F 61% 30.35 in 10.0 mi Calm Calm - N/A   Clear
11:15 AM 41.0 °F - 26.6 °F 57% 30.35 in 10.0 mi Calm Calm - N/A   Clear
11:35 AM 42.8 °F - 26.6 °F 53% 30.34 in 10.0 mi Calm Calm - N/A   Clear
11:55 AM 44.6 °F - 24.8 °F 46% 30.33 in 10.0 mi Calm Calm - N/A   Clear
12:15 PM 44.6 °F - 23.0 °F 43% 30.32 in 10.0 mi Calm Calm - N/A   Clear
12:35 PM 46.4 °F 45.2 °F 24.8 °F 43% 30.31 in 10.0 mi SE 3.5 mph - N/A   Clear
12:55 PM 46.4 °F - 24.8 °F 43% 30.31 in 10.0 mi Calm Calm - N/A   Clear
1:15 PM 48.2 °F - 24.8 °F 40% 30.30 in 10.0 mi Calm Calm - N/A   Clear
1:35 PM 50.0 °F - 23.0 °F 35% 30.30 in 10.0 mi Calm Calm - N/A   Clear
1:55 PM 50.0 °F - 23.0 °F 35% 30.30 in 10.0 mi Calm Calm - N/A   Clear
2:15 PM 51.8 °F - 24.8 °F 35% 30.29 in 10.0 mi Calm Calm - N/A   Clear
2:35 PM 51.8 °F - 23.0 °F 33% 30.30 in 10.0 mi Calm Calm - N/A   Clear
2:55 PM 51.8 °F - 19.4 °F 28% 30.30 in 10.0 mi Calm Calm - N/A   Clear
3:15 PM 51.8 °F - 19.4 °F 28% 30.30 in 10.0 mi Calm Calm - N/A   Clear
3:35 PM 51.8 °F - 19.4 °F 28% 30.30 in 10.0 mi Calm Calm - N/A   Clear
3:55 PM 51.8 °F - 19.4 °F 28% 30.30 in 10.0 mi Calm Calm - N/A   Clear
4:15 PM 51.8 °F - 19.4 °F 28% 30.30 in 10.0 mi Calm Calm - N/A   Clear
4:35 PM 51.8 °F - 21.2 °F 30% 30.30 in 10.0 mi Calm Calm - N/A   Clear
4:55 PM 50.0 °F - 19.4 °F 30% 30.30 in 10.0 mi Calm Calm - N/A   Clear
5:15 PM 48.2 °F - 21.2 °F 34% 30.31 in 10.0 mi Calm Calm - N/A   Clear
5:35 PM 46.4 °F - 21.2 °F 37% 30.31 in 10.0 mi Calm Calm - N/A   Clear
5:55 PM 44.6 °F - 23.0 °F 43% 30.31 in 10.0 mi Calm Calm - N/A   Clear
6:15 PM 41.0 °F - 24.8 °F 53% 30.31 in 10.0 mi Calm Calm - N/A   Clear
6:35 PM 39.2 °F - 26.6 °F 61% 30.32 in 10.0 mi Calm Calm - N/A   Clear
6:55 PM 39.2 °F 37.0 °F 26.6 °F 61% 30.33 in 10.0 mi West 3.5 mph - N/A   Clear
7:15 PM 37.4 °F - 26.6 °F 65% 30.33 in 10.0 mi Calm Calm - N/A   Clear
7:35 PM 37.4 °F - 26.6 °F 65% 30.33 in 10.0 mi Calm Calm - N/A   Clear
7:55 PM 35.6 °F - 26.6 °F 70% 30.34 in 10.0 mi Calm Calm - N/A   Clear
8:15 PM 35.6 °F 31.7 °F 26.6 °F 70% 30.34 in 10.0 mi SSW 4.6 mph - N/A   Clear
8:35 PM 35.6 °F - 26.6 °F 70% 30.34 in 10.0 mi Calm Calm - N/A   Clear
8:55 PM 35.6 °F - 26.6 °F 70% 30.34 in 10.0 mi Calm Calm - N/A   Clear
9:15 PM 33.8 °F - 26.6 °F 75% 30.34 in 10.0 mi Calm Calm - N/A   Clear
9:35 PM 35.6 °F - 24.8 °F 65% 30.34 in 10.0 mi Calm Calm - N/A   Clear
10:15 PM 32.0 °F - 26.6 °F 80% 30.35 in 10.0 mi Calm Calm - N/A   Clear
10:35 PM 33.8 °F - 26.6 °F 75% 30.35 in 10.0 mi Calm Calm - N/A   Clear
10:55 PM 30.2 °F - 26.6 °F 86% 30.35 in 10.0 mi Calm Calm - N/A   Clear
11:15 PM 30.2 °F - 24.8 °F 80% 30.35 in 10.0 mi Calm Calm - N/A   Clear
11:35 PM 32.0 °F - 24.8 °F 75% 30.35 in 10.0 mi Calm Calm - N/A   Clear